Kosmos-2339

operational
NORAD ID: 24727 Int'l Des: 1997-006 Owner: VKS Country: RU
LEOCIRCULARPOLAR

关于 Kosmos-2339

正在加载描述...

实时位置

正在加载3D地球...

即将过境

高度历史

Altitude vs Time

uPlot chart will show altitude changes over time

两行轨道根数

1 24727U 97006C 26061.50267795 .00000032 00000-0 11916-3 0 9996
2 24727 82.6083 323.2006 0000492 67.3519 106.1769 12.62377519338112
Epoch: Mar 2, 2026 • Age: 31 hours

当前状态

高度 1424.8 km
速度 7.15 km/s
星下点 69.70°N, 83.93°E
发射日期 Feb 14, 1997
运行时间 29 years
类型 other

技术详情

分类 Payload
质量 225.00 kg
干质量 225.00 kg
总质量 225.00 kg
长度 1.60 m
直径 0.80 m
跨度 7.00 m
形状 Cyl + Ant
制造商 NPOPMR
平台类型 Strela-3
阶段状态 In Orbit
所有者/国家 VKS/RU

大型星座

Loading constellations...